Location: *
(49.7115°N, 15.0136°E)
Time: 03:17:25
(UTC+00:00)

STARLINK-59 - Pass Details

Date: 27 February 2020
Orbit: 529 x 530 km, 53.0° (Epoch: 09 April)

Event Time Altitude Azimuth Distance (km) Brightness Sun altitude
Rises 17:55:37 0° 278° (W) 2,670 9.1 -13.3°
Reaches altitude 10° 17:57:53 10° 283° (WNW) 1,781 7.6 -13.6°
Maximum altitude 18:01:50 52° 0° (N) 669 4.0 -14.3°
Enters shadow 18:04:04 23° 68° (ENE) 1,147 4.7 -14.6°
